Voltar ao catálogo

NADEZHDA 6 DEB

AtivoSSO
NORAD 36294·DEBRIS·🇷🇺 Russia

Lançado Jun 28, 2000 de Plesetsk Cosmodrome

Loading…

Próximas Passagens (próximas 24 horas)

TLE

AtualizadoSource: Space-Track

Época: Sep 11, 2026, 05:02 UTC

1 36294U 00033E   26254.20986020  .00000670  00000-0  11102-3 0  9997
2 36294  97.8080 232.1145 0014665  52.9829 321.7602 14.73240293687044

Acompanhe NADEZHDA 6 DEB em tempo real com AllMySat

Download on the App Store